www.pogodaiklimat.ru

Погода и климат >> Архив погоды >> Китай >> Синьцзян-Уйгурский автономный район >> Карамай


ПОГОДА в Карамае

  • Прогноз погоды в Карамае
  • Монитор погоды в Карамае

АРХИВ ПОГОДЫ в Карамае

Время (UTC), дата Ветер
(напр.,м/с)
 
Видим.   Явления Облачность Т
(С)
Тd
(С)
f
(%)
Тe
(С)
Тes
(С)
Комфортность P
(гПа)
Po
(гПа)
Тmin
(С)
Tmax
(С)
R
(мм)
R24
(мм)
S
(см)
21 16.07 З 1 30 км н/о +26.3 +2.9 22 +25 +25 комфорт 1001.8 954.0
00 17.07 З 1 30 км 3/3
[]
+23.5 +9.1 40 +24 +25 комфорт 1003.4 953.8
03 17.07 Ю 2 30 км 3/3
[]
+28.9 +8.0 27 +28 +35 жарко 1004.5 957.0
06 17.07 Ю 4 30 км 3/3
[]
+32.3 +5.8 19 +30 +39 жарко 1003.5 954.1 +23.5
09 17.07 Ю 4 30 км 1/1
[]
+35.8 +7.0 17 +34 +41 очень
жарко
1001.6 955.3
12 17.07 ЮВ 3 30 км ясно +35.6 +8.4 19 +34 +36 очень
жарко
1001.3 951.8
15 17.07 СЗ 3 30 км н/о +33.3 -2.4 10 +30 +30 жарко 1002.7 956.0
18 17.07 СЗ 2 30 км ?/? +29.8 +3.7 19 +28 +28 жарко 1003.2 953.8 +36.4
21 17.07 СВ 2 30 км н/о +27.6 +5.8 25 +27 +27 жарко 1003.8 956.1
00 18.07 С 2 30 км 4/4
[]
+27.7 +5.3 24 +27 +27 жарко 1004.4 955.0
03 18.07 В 4 30 км ясно +30.7 +5.2 20 +29 +36 жарко 1005.1 957.9
06 18.07 В 2 30 км ясно +34.3 +5.8 17 +32 +50 жарко 1003.9 954.6 +26.7
09 18.07 В 4 30 км ясно +36.7 +3.8 13 +34 +42 очень
жарко
1001.7 955.5
12 18.07 В 1 30 км ясно +36.7 +4.9 14 +34 +36 очень
жарко
1000.9 951.8
15 18.07 штиль 0 30 км н/о +32.5 +7.4 21 +31 +31 жарко 1001.8 955.0
18 18.07 СЗ 3 30 км ?/? +31.3 +4.2 18 +29 +29 жарко 1001.4 952.4 +37.4
21 18.07 СЗ 4 30 км н/о +29.8 +4.4 20 +28 +28 жарко 1000.6 953.4
00 19.07 В 1 30 км 3/3 2000 м
[]
+28.1 +7.4 27 +27 +28 жарко 1001.6 952.5
03 19.07 В 3 30 км 3/3
[]
+31.8 +8.8 24 +31 +37 жарко 1002.1 955.2
06 19.07 В 2 30 км 6/6 2000 м
[]
+34.9 +8.6 20 +33 +41 жарко 1001.0 952.0 +27.8
09 19.07 З 6 30 км 4/4
[]
+37.4 +6.4 15 +35 +38 очень
жарко
999.2 953.2
12 19.07 СЗ 3 30 км 8/8
[]
+37.5 +3.3 12 +34 +35 очень
жарко
998.9 950.0
15 19.07 С 2 30 км н/о +33.8 -2.0 10 +30 +30 жарко 1000.2 953.7
18 19.07 СВ 2 30 км ?/? +29.5 +8.6 27 +29 +29 жарко 1001.5 952.4 +38.5
21 19.07 С 1 30 км н/о +26.4 +9.7 35 +27 +27 жарко 1001.5 953.8
00 20.07 СВ 1 30 км 4/4
[]
+25.5 +9.3 36 +26 +27 жарко 1002.2 952.9
03 20.07 В 2 30 км 6/6
[]
+28.7 +9.9 31 +29 +33 жарко 1002.4 955.0
06 20.07 ЮВ 2 30 км 6/6
[]
+32.7 +8.2 22 +31 +39 жарко 1001.0 951.7 +24.9
09 20.07 Ю 8 22 км 9/9 2000 м
[]
+29.4 +10.5 31 +30 +30 жарко 1002.6 955.3
12 20.07 СЗ 5 18 км 9/9 2000 м
[]
+33.5 +7.5 20 +32 +32 жарко 1000.9 951.4
15 20.07 З 2 30 км н/о +28.6 +10.8 33 +29 +29 жарко 1002.3 954.9
18 20.07 С 2 30 км ?/? +25.8 +9.6 36 +26 +26 жарко 1001.5 951.9 +34.6
21 20.07 С 2 30 км н/о +26.0 +9.4 35 +26 +26 жарко 1001.9 954.1
00 21.07 СЗ 2 30 км ясно +24.2 +9.0 38 +25 +26 комфорт 1002.6 952.9
03 21.07 Ю 1 30 км ясно +30.0 +7.2 24 +29 +41 жарко 1003.3 956.0
06 21.07 Ю 3 30 км ясно +31.7 +8.7 24 +31 +46 жарко 1003.1 953.3 +23.5
09 21.07 В 3 30 км 6/6 2000 м
[]
+33.8 +8.4 21 +32 +37 жарко 1001.6 955.0
12 21.07 СЗ 4 30 км 4/4
[]
+34.3 +6.6 18 +32 +33 жарко 1001.5 951.9
15 21.07 СЗ 4 30 км н/о +30.7 +9.0 26 +30 +30 жарко 1002.6 955.5
18 21.07 З 4 30 км ?/? +29.3 +7.8 26 +29 +29 жарко 1003.4 953.9 +34.5
21 21.07 З 2 30 км н/о +24.6 +13.5 50 +27 +27 жарко 1003.4 955.3
00 22.07 СЗ 3 30 км 6/6 2000 м
[]
+25.5 +8.5 34 +26 +26 жарко 1002.9 953.3
03 22.07 З 6 30 км 6/6 2000 м
[]
+29.8 +8.8 27 +29 +31 жарко 1002.9 955.6
06 22.07 З 3 30 км 8/8 2000 м
[]
+32.0 +7.0 21 +30 +33 жарко 1001.1 951.7 +23.5
09 22.07 Ю 2 30 км 6/6 2000 м
[]
+32.6 +11.2 27 +32 +37 жарко 1000.2 953.5
12 22.07 СЗ 7 30 км 3/3
[]
+33.7 +6.1 18 +32 +32 жарко 1000.4 950.9
15 22.07 С 3 30 км н/о +31.4 +8.4 24 +30 +30 жарко 1001.6 954.6
18 22.07 штиль 0 30 км ?/? +27.3 +10.9 36 +28 +28 жарко 1002.0 952.4 +33.9
21 22.07 Ю 1 30 км н/о +24.6 +12.6 47 +26 +26 жарко 1001.1 953.1
00 23.07 Ю 1 30 км 8/8 2000 м
[]
+24.0 +12.3 48 +26 +26 жарко 1002.0 952.3
03 23.07 Ю 1 30 км 9/9 2000 м
[]
+27.7 +12.9 40 +29 +30 жарко 1001.8 954.3
06 23.07 ЮВ 2 30 км 9/9 2000 м
[]
+29.1 +12.1 35 +30 +32 жарко 1001.9 952.1 +23.9
09 23.07 ЮВ 3 30 км 9/9 2000 м
[]
+30.5 +12.4 33 +31 +32 жарко 1001.1 954.0
12 23.07 З 3 30 км 9/9 2000 м
[]
+31.8 +9.4 25 +31 +31 жарко 1001.2 951.4
15 23.07 СЗ 3 30 км н/о +29.6 +8.1 26 +29 +29 жарко 1002.0 954.7
18 23.07 С 2 30 км ?/? +28.1 +6.8 26 +27 +27 жарко 1002.0 952.3 +32.4

 

Местоположение метеостанции Карамай (Синьцзян-Уйгурский автономный район, Китай): широта 45.60 долгота 84.85 высота над уровнем моря 428 м.

В архиве по умолчанию представлена погода в Карамае за последнюю неделю. Архивные данные за месяц целиком и за предыдущие месяцы, начиная с января 2011 года, Вы можете получить, выбрав интересующий диапазон дат из раскрывающегося списка и нажав кнопку "Ввод!".


*Определитесь, кто Вы:
робот инопланетянин человек

Внимание! Время в таблицах - всемирное. Для получения местного времени необходимо прибавить поправку, которая равна 8 ч.

Смотрите также архив погоды в соседних городах и на ближайших метеорологических станциях:

Погода в Хобоксаре (Синьцзян-Уйгурский автономный район, Китай) (147 км)
Погода в Тасбастау (Восточно-Казахстанская область, Казахстан) (182 км)
Погода в Цзинхэ (Синьцзян-Уйгурский автономный район, Китай) (188 км)
Погода в Достыке (Алматинская область, Казахстан) (190 км)
Погода в Таченге (Синьцзян-Уйгурский автономный район, Китай) (190 км)
Погода в Бахты (Восточно-Казахстанская область, Казахстан) (200 км)
Погода в Зайсане (Восточно-Казахстанская область, Казахстан) (208 км)
Погода в Узынбулаке (Алматинская область, Казахстан) (209 км)
Погода в Карабулаке (Восточно-Казахстанская область, Казахстан) (217 км)
Погода в Акжаре (Восточно-Казахстанская область, Казахстан) (238 км)

Пояснения к столбцам:

Ветер - указаны скорость ветра в м/с - средняя за 10 мин, порывы в срок и между сроками (в фигурных скобках) и направление, откуда дует ветер: С - северный, СВ - северо-восточный, В - восточный, ЮВ - юго-восточный, Ю - южный, ЮЗ - юго-западный, З - западный, СЗ - северо-западный.
Видимость - горизонтальная дальность видимости в метрах или километрах. При видимости от 1 до 10 км при отсутствии осадков обычно наблюдается дымка, при ухудшении видимости до 1 км и менее - туман. В сухую погоду видимость может ухудшаться дымом, пылью или мглою.
Явления - указаны атмосферные явления, наблюдавшиеся в срок или в последний час перед сроком; фигурными скобками обозначены явления, наблюдавшиеся между сроками (за 1-3 часа до срока); квадратными скобками обозначены град или гололедные отложения с указанием их диаметра в мм.
Облачность - указаны через наклонную черту общая и нижняя облачность в баллах и высота нижней границы облаков в метрах; квадратными скобками обозначены формы облаков: Ci - перистые, Cs - перисто-слоистые, Cc - перисто-кучевые, Ac - высококучевые, As - высокослоистые, Sc - слоисто-кучевые, Ns - слоисто-дождевые, Cu - кучевые, Cb - кучево-дождевые. Подробнее классификацию облаков см. в Атласе облаков (PDF).
T - Температура воздуха - температура, измеренная на высоте 2 м над землей.
Td - Температура точки росы - температура, при понижении до которой содержащийся в воздухе водяной пар достигнет насыщения.
f - Относительная влажность воздуха - влажноcть воздуха, измеренная на высоте 2 м над землей.
Te - Эффективная температура - температура, которую ощущает одетый по сезону человек в тени. Характеристика душности погоды. При расчете учитывается влияние влажности воздуха и скорости ветра на теплоощущения человека.
Tes - Эффективная температура на солнце - температура, которую ощущает человек, с поправкой на солнечный нагрев. Характеристика знойности погоды. Зависит от высоты солнца над горизонтом, облачности и скорости ветра. Ночью, в пасмурную погоду, а также при ветре 12 м/с и более поправка равна нулю.
P - Атмосферное давление - приведенное к уровню моря атмосферное давление.
Po - Атмосферное давление - измеренное на уровне метеостанции атмосферное давление.
Tmin - Минимальная температура - минимум температуры воздуха на высоте 2 м над землей.
Tmax - Максимальная температура - максимум температуры воздуха на высоте 2 м над землей.
R - Количество осадков - Количество выпавших осадков за период времени, мм. При наведении курсора мыши на число - период времени, за который выпало указанное количество осадков.
R24 - Количество осадков - Количество выпавших осадков за 24 часа, мм.
S - Снежный покров - Высота снежного покрова, см. При наведении курсора мыши на число - состояние снежного покрова и степень покрытия местности в баллах.